Regional Weather Roundup
Issued by NWS

Home | Current Version | Previous Version | Text Only | Print | Product List | Glossary Off
Versions: 1 2 3 4 5 6 7 8 9 10 11 12 13 14 15 16 17 18 19 20 21 22 23 24 25 26 27 28 29 30 31 32 33 34 35 36 37 38 39 40 41 42 43 44 45 46 47 48 49 50

000
ASUS43 KMKX 211011
RWRWI

WISCONSIN REGIONAL WEATHER ROUNDUP
NATIONAL WEATHER SERVICE MILWAUKEE/SULLIVAN WI
500 AM CDT MON AUG 21 2017

NOTE: "FAIR" INDICATES FEW OR NO CLOUDS BELOW 12,000 FEET WITH NO
SIGNIFICANT WEATHER AND/OR OBSTRUCTIONS TO VISIBILITY.

WIZ001-002-006>008-014>016-023>028-211100-
NORTHWEST WISCONSIN

CITY           SKY/WX    TMP DP  RH WIND       PRES   REMARKS
SUPERIOR ARPT    N/A     52  52 100 CALM      30.04R
ASHLAND        CLEAR     50  50 100 S5        30.05R
HAYWARD        PTCLDY    50  49  96 CALM      30.07R
SIREN          CLOUDY    55  53  95 CALM      30.07R
CUMBERLAND     PTCLDY    54  52  94 CALM      30.08R
RICE LAKE      PTCLDY    58  57  96 CALM      30.08R
CHETEK         CLOUDY    62  60  96 NW5       30.06S
LADYSMITH      PTCLDY    63  61  93 CALM      30.08S
EAU CLAIRE     CLOUDY    66  62  87 NE5       30.03S
MENOMONIE      CLOUDY    67  64  87 CALM      30.04S
NEW RICHMOND   CLOUDY    60  59  98 NE3       30.05S
OSCEOLA        CLOUDY    58  58 100 CALM      30.07F
$$

WIZ003>005-009-010-017-018-211100-
NORTH CENTRAL WISCONSIN

CITY           SKY/WX    TMP DP  RH WIND       PRES   REMARKS
MANITOWISH WTR MOCLDY    52  52 100 CALM      30.08R FOG
ARBOR VITAE    FOG       59  58  96 CALM      30.09R VSB 1
WOODRUFF       FOG       59  58  96 CALM      30.09R VSB 1
RHINELANDER    MOCLDY    63  62  97 CALM      30.08R
EAGLE RIVER    PTCLDY    55  55 100 CALM      30.08R FOG
LAND O LAKES   CLEAR     54  54  99 CALM      30.09R FOG
PHILLIPS       CLOUDY    57  57 100 N3        30.07R
TOMAHAWK         N/A     59  58  95 CALM      30.08R FOG
MEDFORD        MOCLDY    62  61  98 CALM      30.06R
MERRILL        CLOUDY    63  63 100 N3        30.07R
$$

WIZ029-030-035-036-043>047-211100-
CENTRAL WISCONSIN

CITY           SKY/WX    TMP DP  RH WIND       PRES   REMARKS
WAUSAU         PTCLDY    65  65 100 CALM      30.04R
MOSINEE        FOG       63  63 100 CALM      30.06R VSB 1/4
MARSHFIELD     CLOUDY    65  63  93 CALM      30.04R
STEVENS POINT  CLOUDY    64  64 100 CALM      30.06R
WAUPACA        CLOUDY    66  65  97 W3        30.04S
WAUTOMA        CLOUDY    60  60 100 CALM      30.04F
WISC RAPIDS    CLOUDY    66  65  96 CALM      30.05R
CAMP DOUGLAS   CLOUDY    61  61 100 CALM      30.04R
$$

WIZ011>013-019>022-031-037>040-048>050-211100-
NORTHEAST WISCONSIN

CITY           SKY/WX    TMP DP  RH WIND       PRES   REMARKS
ANTIGO         CLOUDY    61  61 100 CALM      30.07R
SHAWANO        CLOUDY    66  65  94 CALM      30.04R FOG
OCONTO         PTCLDY    62  62  97 CALM      30.03R
STURGEON BAY   CLOUDY    68  67  96 W3        30.04R
GREEN BAY      FOG       62  62 100 CALM      30.03R VSB 1/4
MANITOWOC      FOG       64  64 100 CALM      30.05R VSB 3/4
APPLETON       CLOUDY    63  63 100 CALM      30.03R
CLINTONVILLE   MOCLDY    63  63 100 CALM      30.04R FOG
OSHKOSH        MOCLDY    67  64  90 W3        30.03S
$$

WIZ032>034-041-042-053>061-211100-
SOUTHWEST WISCONSIN

CITY           SKY/WX    TMP DP  RH WIND       PRES   REMARKS
LA CROSSE      CLOUDY    70  67  90 SE3       30.03R
SPARTA         CLOUDY    58  58 100 CALM      30.04F
VIROQUA        CLOUDY    65  64  99 CALM      30.06R
BOSCOBEL       FOG       63  62  97 CALM      30.05R VSB 1/4
PRAIRIE DU CHI CLOUDY    63  62  94 CALM      30.06R
PLATTEVILLE    CLOUDY    66  66 100 CALM      30.05R
$$

WIZ056-057-062-063-064-067-068-211100-
SOUTH CENTRAL WISCONSIN

CITY           SKY/WX    TMP DP  RH WIND       PRES   REMARKS
REEDSBURG      CLOUDY    61  61 100 CALM      30.04S
BARABOO/DELLS  CLOUDY    62  61  96 CALM      30.05R FOG
LONE ROCK      FOG       63  63 100 CALM      30.04R VSB 1/2
MINERAL POINT  CLOUDY    64  64 100 CALM      30.06R FOG
MADISON        CLOUDY    64  63  96 CALM      30.04S FOG
MIDDLETON      CLOUDY    62  62 100 CALM      30.05R
WATERTOWN      CLOUDY    64  64 100 CALM      30.05R FOG
MONROE         CLOUDY    66  64  94 CALM      30.05R FOG
JANESVILLE     CLOUDY    64  64 100 CALM      30.05R FOG
$$

WIZ051-052-058>065-066-070>072-211100-
SOUTHEAST WISCONSIN

CITY           SKY/WX    TMP DP  RH WIND       PRES   REMARKS
MILWAUKEE      CLOUDY    68  65  90 CALM      30.03R
WAUKESHA       CLOUDY    61  61 100 CALM      30.05S FOG
MILWAUKEE/TIMM CLOUDY    64  61  88 CALM      30.04S
RACINE         CLOUDY    67  67 100 CALM      30.05R
KENOSHA        CLOUDY    68  65  90 CALM      30.04R
FOND DU LAC    CLOUDY    65  63  93 S5        30.04S FOG
SHEBOYGAN      CLOUDY    61  61 100 CALM      30.04R FOG
WEST BEND      CLOUDY    61  61 100 CALM      30.05S
JUNEAU         FOG       63  63  99 CALM      30.06S VSB 3/4
$$

LSZ147-162-211100-
LAKE SUPERIOR

STATION/POSITION TIME  TEMP    WIND        PRES    WAVE
                       AIR SEA DIR/SP/G            HT/PER
                 (UTC) (F)     (DEG/KT/KT) (MB)    (FT/S)
W MID LAKE BUOY  0950   62 60  270/  8/  8 1015.9R   1
DEVILS ISLAND    1000   62     210/  9/ 10 1017.0R
SAXON HARBOR     0940   58     190/  5/  7 1016.6R
$$

LMZ867-665-643>646-211100-
LAKE MICHIGAN

STATION/POSITION TIME  TEMP    WIND        PRES    WAVE
                       AIR SEA DIR/SP/G            HT/PER
                 (UTC) (F)     (DEG/KT/KT) (MB)    (FT/S)
S GREEN BAY BUOY 1000   72 71  220/  6/  6 1016.6
N MID LAKE BUOY  0950   68 67  210/  6/  8 1016.7R   2/ 5
NORTHPORT PIER   0940   70     260/  4/  6 1016.3R
KEWAUNEE LAKESHO 0942   66     200/  2/  2 1015.9R
SHEBOYGAN LAKESH 1000   68     330/  3/  3 1016.9R
PORT WASHINGTON  0940   71     290/  6/  8 1017.6R
ATWATER BUOY     0909   70 70   CALM  /  2 1016.9R
MILWAUKEE LAKESH 0950   71     320/  1/  1   N/A
S MID LAKE BUOY  0950   74 72  200/ 12/ 12 1016.7R   1/ 3
KENOSHA   LAKESH 1000   73     180/  5/  6 1016.9
$$

TC  - TEMPERATURE IN CELSIUS
VSB - VISIBILITY IN STATUTE MILES
WCI - WIND CHILL INDEX
HX  - HEAT INDEX





USA.gov is the U.S. government's official web portal to all federal, state and local government web resources and services.